Location: El Gallo
(32.4380°N, 116.9347°W)
Time: 20:48:27
(UTC+00:00)

Meteor 2-9 Rocket - Pass Details

Date: 01 October 2022
Orbit: 791 x 895 km, 81.3° (Epoch: 02 December)

Event Time Altitude Azimuth Distance (km) Brightness Sun altitude
Rises 12:52:21 0° 345° (NNW) 3,461 7.3 -11.3°
Reaches altitude 10° 12:54:53 10° 340° (NNW) 2,505 6.5 -10.7°
Maximum altitude 13:00:20 49° 267° (W) 1,081 4.4 -9.6°
Drops below altitude 10° 13:05:36 10° 194° (SSW) 2,423 6.4 -8.5°
Sets 13:08:01 0° 188° (S) 3,337 7.2 -8.0°
